This is the latest recevied weather packets stored in our database for station/object KG0HG. If no packets are shown the sender has not sent any weather packets the latest 10 day(s).
| Time | Temp. | Humidity | Pressure | Rain* | Wind** | Luminosity | Snow |
|---|---|---|---|---|---|---|---|
| 1777511359 | 12.78° C | 61% | 1018.4 hPa | 0 mm | - | 1 W/m² | - |
| 1777511054 | 13.33° C | 61% | 1018.4 hPa | 0 mm | - | 2 W/m² | - |
| 1777510751 | 13.89° C | 60% | 1018.4 hPa | 0 mm | - | 3 W/m² | - |
| 1777510449 | 13.89° C | 57% | 1018.3 hPa | 0 mm | - | 8 W/m² | - |
| 1777510143 | 13.89° C | 58% | 1018.1 hPa | 0 mm | - | 11 W/m² | - |
| 1777509841 | 14.44° C | 58% | 1018 hPa | 0 mm | - | 15 W/m² | - |
| 1777509535 | 15° C | 53% | 1018.1 hPa | 0 mm | - | 16 W/m² | - |
| 1777509233 | 15° C | 53% | 1018.1 hPa | 0 mm | - | 21 W/m² | - |
| 1777508930 | 15° C | 54% | 1018.1 hPa | 0 mm | - | 27 W/m² | - |
| 1777508627 | 15° C | 53% | 1018.1 hPa | 0 mm | - | 32 W/m² | - |
| 1777508325 | 15° C | 54% | 1018.1 hPa | 0 mm | - | 42 W/m² | - |
| 1777508021 | 15° C | 51% | 1018 hPa | 0 mm | - | 34 W/m² | - |
| 1777507718 | 15° C | 51% | 1018.1 hPa | 0 mm | - | 44 W/m² | - |
| 1777507415 | 15° C | 53% | 1018.1 hPa | 0 mm | - | 47 W/m² | - |
| 1777507112 | 15° C | 50% | 1018 hPa | 0 mm | - | 46 W/m² | - |
| 1777506810 | 15° C | 52% | 1018 hPa | 0 mm | - | 48 W/m² | - |
| 1777506506 | 15° C | 52% | 1018.1 hPa | 0 mm | - | 46 W/m² | - |
| 1777506202 | 15° C | 49% | 1018.1 hPa | 0 mm | - | 47 W/m² | - |
| 1777505899 | 15° C | 51% | 1018 hPa | 0 mm | - | 47 W/m² | - |
| 1777505594 | 15° C | 49% | 1018.1 hPa | 0 mm | - | 48 W/m² | - |
| 1777505291 | 15° C | 48% | 1018.1 hPa | 0 mm | - | 41 W/m² | - |
| 1777504988 | 15° C | 49% | 1018.2 hPa | 0 mm | - | 47 W/m² | - |
| 1777504685 | 15.56° C | 47% | 1018.2 hPa | 0 mm | - | 49 W/m² | - |
| 1777504382 | 15.56° C | 46% | 1017.9 hPa | 0 mm | - | 66 W/m² | - |
| 1777504076 | 15.56° C | 47% | 1018.3 hPa | 0 mm | - | 85 W/m² | - |
* Rain latest hour (hover to see other rain measurements)
** Current wind speed in m/s (hover to see current wind gust speed)